Regional Weather Roundup
Issued by NWS

Home | Current Version | Previous Version | Text Only | Print | Product List | Glossary Off
Versions: 1 2 3 4 5 6 7 8 9 10 11 12 13 14 15 16 17 18 19 20 21 22 23 24 25 26 27 28 29 30 31 32 33 34 35 36 37 38 39 40 41 42 43 44 45 46 47 48 49 50

000
ASUS44 KMEG 161610
RWRTN
TENNESSEE HOURLY STATE WEATHER ROUNDUP
NATIONAL WEATHER SERVICE MEMPHIS TN
1100 AM CDT TUE SEP 16 2014

TNZ002-004-019-021-049-052-054-088>092-161700-
WEST TENNESSEE

CITY           SKY/WX    TMP DP  RH WIND       PRES   REMARKS
MEMPHIS INTL   CLOUDY    72  66  81 NE6       30.13F
NWS MEMPHIS      N/A     71 N/A N/A MISG        N/A
JACKSON        CLOUDY    70  65  84 N7        30.14S
DYERSBURG      CLOUDY    70  54  56 NE8       30.16S
UNION CITY     CLOUDY    66  57  72 NE10      30.16S
PARIS          CLOUDY    63  57  82 NE12      30.18R
HUNTINGDON     CLOUDY    63  60  90 N9        30.16S
LEXINGTON      CLOUDY    68  64  88 N6        30.13S
SAVANNAH       PTSUNNY   79  70  73 VRB6      30.13S
$$

TNZ008-025-027-028-033-062-065-066-161700-
NORTH MIDDLE TENNESSEE

CITY           SKY/WX    TMP DP  RH WIND       PRES   REMARKS
NASHVILLE      CLOUDY    69  64  84 N9        30.14S
DICKSON          N/A     64  61  88 N8        30.15S
PORTLAND       CLOUDY    63  61  94 N8        30.14S
CLARKSVILLE    CLOUDY    63  58  83 N15       30.17S
LEBANON        CLOUDY    68  64  86 N6        30.13R
SMYRNA         CLOUDY    71  65  81 N8        30.14S
COOKEVILLE       N/A     72  66  83 CALM      30.12F
LIVINGSTON     CLOUDY    65  63  93 N6        30.14S
GALLATIN       CLOUDY    66  66 100 VRB6      30.15R
CROSSVILLE     CLOUDY    70  63  78 W6        30.16S
$$

TNZ061-075-076-078-094-096-097-161700-
SOUTH MIDDLE TENNESSEE

CITY           SKY/WX    TMP DP  RH WIND       PRES   REMARKS
LEWISBURG      PTSUNNY   75  67  76 N5        30.12S
FAYETTEVILLE   SUNNY     77  64  65 VRB5      30.12F
TULLAHOMA      PTSUNNY   73  64  73 CALM      30.13F
WINCHESTER     MOSUNNY   77  66  69 NW5       30.12F
MCMINNVILLE    PTSUNNY   73  70  88 CALM      30.13F
COLUMBIA       CLOUDY    75  72  88 N7        30.11F
SHELBYVILLE    PTSUNNY   75  68  78 N6        30.13F
$$

TNZ017-018-042-046-047-161700-
NORTHEAST TENNESSEE

CITY           SKY/WX    TMP DP  RH WIND       PRES   REMARKS
TRI CITIES     CLOUDY    72  63  73 SW8       30.10F
ELIZABETHTON   CLOUDY    70  64  83 SW6       30.11S
$$

TNZ012-013-036-069-073-074-161700-
CENTRAL EAST TENNESSEE

CITY           SKY/WX    TMP DP  RH WIND       PRES   REMARKS
KNOXVILLE      PTSUNNY   77  65  66 SW8       30.09F
OAK RIDGE      PTSUNNY   77  65  66 VRB3      30.11F
GATLINBURG     PTSUNNY   79  64  61 SW5       30.08F
MORRISTOWN       N/A     75  64  69 W9        30.11F
$$

TNZ083-085-099-161700-
SOUTHEAST TENNESSEE

CITY           SKY/WX    TMP DP  RH WIND       PRES   REMARKS
CHATTANOOGA    PTSUNNY   79  66  64 NW6       30.10F
$$

SKY/WX REPORTED AS FAIR MEANS FEW OR NO CLOUDS BELOW
12 THOUSAND FEET.



USA.gov is the U.S. government's official web portal to all federal, state and local government web resources and services.